,

(GMT )
Hvar

Weather History for LDSH - November, 2018

Change the Weather History Date:

Friday, November 9, 2018

  Actual Average Record
Temperature  
Mean Temperature 64 °F -  
Max Temperature 72 °F - - ()
Min Temperature 55 °F - - ()
Degree Days  
Heating Degree Days 2    
Growing Degree Days 14 (Base 50)    
Moisture  
Dew Point 56 °F    
Average Humidity 73    
Maximum Humidity 89    
Minimum Humidity 53    
Precipitation  
Precipitation 0.00 in - - ()
Sea Level Pressure  
Sea Level Pressure 30.08 in    
Wind  
Wind Speed 2 mph ()    
Max Wind Speed 4 mph    
Max Gust Speed -    
Visibility 19.0 miles    
Events      
T = Trace of Precipitation, MM = Missing Value Source: Averaged Metar Reports

Daily Weather History Graph

Daily Weather History Graph

Search for Another Location

Airport or City:

Astronomy

Nov. 09, 2018 Rise Set
Actual Time 6:38 AM CET 4:36 PM CET
Civil Twilight 6:08 AM CET 5:06 PM CET
Nautical Twilight 5:34 AM CET 5:40 PM CET
Astronomical Twilight 5:01 AM CET 6:14 PM CET
Moon 8:11 AM CET (11/9) 6:08 PM CET (11/9)
Length of Visible Light 10h 57m
Length of Day
9h 57m
Waxing Crescent, 4% of the Moon is Illuminated
Nov 9
Waxing Crescent
Nov 15
First Quarter
Nov 23
Full
Nov 30
Last Quarter
Dec 7
New

Hourly Weather History & Observations

Time (CET) Temp. Dew Point Humidity Pressure Visibility Wind Dir Wind Speed Gust Speed Precip Events Conditions
1:00 AM 61 °F 56 °F 80% 30.10 in - Calm Calm - -  
4:00 AM 60 °F 57 °F 86% 30.08 in 19 mi WNW 2.2 mph - -  
5:00 AM 59 °F 56 °F 86% 30.08 in 19 mi NNE 4.5 mph - -  
6:00 AM 57 °F 54 °F 88% 30.09 in 19 mi Calm Calm - -  
7:00 AM 56 °F 54 °F 89% 30.10 in 22 mi Calm Calm - -   Scattered Clouds
8:00 AM 58 °F 55 °F 88% 30.11 in 25 mi Calm Calm - -   Scattered Clouds
9:00 AM 67 °F 58 °F 65% 30.11 in 25 mi SSE 2.2 mph - -   Scattered Clouds
10:00 AM 69 °F 58 °F 58% 30.11 in 25 mi SSE 2.2 mph - -   Scattered Clouds
11:00 AM 70 °F 58 °F 58% 30.11 in 25 mi SE 4.5 mph - -   Scattered Clouds
1:00 PM 71 °F 58 °F 53% 30.07 in 28 mi SSW 4.5 mph - -   Scattered Clouds
2:00 PM 70 °F 57 °F 53% 30.06 in 28 mi West 2.2 mph - -   Scattered Clouds
3:00 PM 69 °F 57 °F 56% 30.07 in - Calm Calm - -  
4:00 PM 66 °F 54 °F 57% 30.06 in - Calm Calm - -  
5:00 PM 62 °F 55 °F 71% 30.06 in - Calm Calm - -  
6:00 PM 60 °F 54 °F 75% 30.07 in - Calm Calm - -  
7:00 PM 58 °F 55 °F 85% 30.06 in 19 mi NNW 2.2 mph - -  
8:00 PM 59 °F 55 °F 82% 30.07 in 19 mi NNW 2.2 mph - -  
9:00 PM 59 °F 55 °F 82% 30.07 in 19 mi NNW 2.2 mph - -  
10:00 PM 57 °F 54 °F 84% 30.08 in - Calm Calm - -